User: anonymous   Login
Location: Unspecified
(0.0000°N, 0.0000°E)
Time: 10:52:31
(UTC+02:00)
Language:

Cosmos 1933 - Orbit

View from above orbital plane
View from above orbital plane
View from above satellite
View from above satellite

Ground track
Ground track

The orbit data is extracted from the following two-line orbital elements,

1 18958U 88020A   15244.86173979 +.00000755 +00000-0 +54900-4 0  9994
2 18958 082.5315 014.8734 0011630 354.6834 005.4265 15.02355786472083
Epoch (UTC): 01 September 2015 20:40:54
Eccentricity: 0.0011630
inclination: 82.5315°
perigee height: 551 km
apogee height: 568 km
right ascension of ascending node: 14.8734°
argument of perigee: 354.6834°
revolutions per day: 15.02355786
mean anomaly at epoch: 5.4265°
orbit number at epoch: 47208

The dashed part of the orbit path shows where the satellite is in the earth's shadow,  

DLR